"2010-06-15 00:00:00",202060,1.595,225.9,6.614,0.263,14.36,105.5481,13.48,14.81,58.62,0,110.5,13.28,14.27,187.9
"2010-06-15 00:00:30",202061,1.518,207.4,6.833,0.206,14.45,105.5555,13.49,14.85,58.63,0,110.5,13.28,14.29,169.4
"2010-06-15 00:01:00",202062,1.628,188.4,15.77,0.188,14.47,105.5419,13.46,14.84,59.12,0,110.5,13.28,14.26,150.4
"2010-06-15 00:01:30",202063,1.564,192.8,15.71,0.193,14.19,105.5405,13.46,14.84,59.25,0,110.5,13.29,14.26,154.8
"2010-06-15 00:02:00",202064,2.142,192.2,9.7,0.255,14.12,105.5408,13.46,14.83,58.3,0,110.5,13.29,14.26,154.2
"2010-06-15 00:02:30",202065,2.5,180.9,4.444,0.218,14.03,105.5543,13.49,14.82,58.22,0,110.5,13.3,14.29,142.9
"2010-06-15 00:03:00",202066,2.525,186.4,4.749,0.27,13.97,105.5591,13.5,14.83,58.57,0,110.5,13.3,14.30,148.4
"2010-06-15 00:03:30",202067,2.235,186.7,6.576,0.225,13.87,105.5617,13.51,14.84,58.66,0,110.5,13.3,14.31,148.7
"2010-06-15 00:04:00",202068,2.512,188,4.797,0.182,13.86,105.5684,13.53,14.85,58.63,0,110.5,13.3,14.33,150.0
"2010-06-15 00:04:30",202069,2.776,183.2,3.902,0.158,13.76,105.5743,13.54,14.86,59.47,0,110.5,13.3,14.34,145.2
"2010-06-15 00:05:00",202070,3.169,194,5.934,0.304,13.81,105.5743,13.54,14.86,58.7,0,110.5,13.29,14.34,156.0
"2010-06-15 00:05:30",202071,2.976,184.1,4.631,0.143,13.81,105.5842,13.57,14.88,58.72,0,110.5,13.29,14.37,146.1
"2010-06-15 00:06:00",202072,2.725,183,7.038,0.224,13.77,105.598,13.6,14.9,58.7,0,110.5,13.29,14.40,145.0
"2010-06-15 00:06:30",202073,2.595,163.5,7.195,0.223,13.75,105.6008,13.61,14.91,58.82,0,110.5,13.29,14.41,125.5
"2010-06-15 00:07:00",202074,2.554,168.2,4.677,0.19,13.7,105.6042,13.62,14.93,58.97,0,110.5,13.29,14.42,130.2
"2010-06-15 00:07:30",202075,3.159,164.8,3.337,0.346,13.77,105.6075,13.63,14.94,59.78,0,110.5,13.29,14.43,126.8
"2010-06-15 00:08:00",202076,3.563,171.3,4.266,0.372,13.89,105.6081,13.63,14.94,58.03,0,110.5,13.29,14.43,133.3
"2010-06-15 00:08:30",202077,3.537,176.5,5.952,0.313,13.94,105.6177,13.65,14.97,56.57,0,110.5,13.29,14.45,138.5
"2010-06-15 00:09:00",202078,3.146,190.2,5.695,0.248,13.95,105.6261,13.68,14.98,55.8,0,110.5,13.29,14.48,152.2
"2010-06-15 00:09:30",202079,3.833,187.6,4.283,0.304,13.97,105.6354,13.7,14.98,55.65,0,110.5,13.28,14.50,149.6
"2010-06-15 00:10:00",202080,3.908,189.9,7.133,0.279,14.02,105.6419,13.72,15.02,55.77,0,110.5,13.28,14.52,151.9
"2010-06-15 00:10:30",202081,3.437,195.2,3.148,0.24,13.99,105.65,13.74,15.03,55.39,0,110.5,13.28,14.54,157.2
"2010-06-15 00:11:00",202082,3.423,202.8,4.913,0.213,13.96,105.6585,13.76,15.04,55.02,0,110.5,13.29,14.56,164.8
"2010-06-15 00:11:30",202083,3.61,207.9,4.319,0.173,14.01,105.6591,13.76,15.07,54.79,0,110.5,13.29,14.56,169.9
"2010-06-15 00:12:00",202084,3.773,210.2,1.827,0.142,14.06,105.6591,13.76,15.07,54.75,0,110.5,13.3,14.56,172.2
"2010-06-15 00:12:30",202085,3.784,209.8,1.192,0.129,14.05,105.6591,13.76,15.11,54.66,0,110.5,13.3,14.56,171.8
"2010-06-15 00:13:00",202086,3.673,211.3,2.846,0.123,14.14,105.6599,13.76,15.13,54.72,0,110.5,13.3,14.56,173.3
"2010-06-15 00:13:30",202087,4.031,209.3,1.653,0.103,14.14,105.662,13.77,15.14,53.95,0,110.5,13.3,14.57,171.3
"2010-06-15 00:14:00",202088,4.162,212.9,1.174,0.103,14.14,105.671,13.79,15.16,53.49,0,110.5,13.3,14.59,174.9
"2010-06-15 00:14:30",202089,4.009,208.9,1.078,0.11,14.19,105.6837,13.82,15.16,53.35,0,110.5,13.3,14.62,170.9
"2010-06-15 00:15:00",202090,4.037,211.1,2.131,0.139,14.28,105.6909,13.84,15.19,53.35,0,110.5,13.3,14.64,173.1
"2010-06-15 00:15:30",202091,4.137,209.7,2.569,0.319,14.38,105.6939,13.85,15.2,54.51,0,110.5,13.3,14.65,171.7
"2010-06-15 00:16:00",202092,3.324,208.7,2.116,0.291,14.42,105.6945,13.85,15.2,54.35,0,110.5,13.3,14.65,170.7
"2010-06-15 00:16:30",202093,3.204,212.8,3.176,0.446,14.37,105.6953,13.85,15.23,54.76,0,110.5,13.3,14.65,174.8
"2010-06-15 00:17:00",202094,3.82,210.7,2.457,0.253,14.4,105.6979,13.86,15.25,54.86,0,110.5,13.3,14.66,172.7
"2010-06-15 00:17:30",202095,2.933,200.9,4.826,0.329,14.42,105.7043,13.88,15.24,54.25,0,110.5,13.3,14.68,162.9
"2010-06-15 00:18:00",202096,2.885,212.1,1.993,0.242,14.34,105.7108,13.89,15.26,53.7,0,110.5,13.3,14.69,174.1
"2010-06-15 00:18:30",202097,3.359,210.8,6.507,0.266,14.26,105.7117,13.89,15.27,53.86,0,110.5,13.3,14.70,172.8
"2010-06-15 00:19:00",202098,3.278,210.4,9.53,0.259,14.36,105.7142,13.9,15.28,54.43,0,110.5,13.3,14.70,172.4
"2010-06-15 00:19:30",202099,3.061,198.1,8.79,0.373,14.43,105.7162,13.91,15.28,54.74,0,110.5,13.3,14.71,160.1
"2010-06-15 00:20:00",202100,3.161,203.3,3.735,0.165,14.32,105.728,13.94,15.29,54.03,0,110.5,13.3,14.74,165.3
"2010-06-15 00:20:30",202101,2.874,202.6,3.592,0.25,14.27,105.7283,13.94,15.3,53.87,0,110.5,13.31,14.74,164.6
"2010-06-15 00:21:00",202102,2.631,215.7,4.706,0.138,14.25,105.7283,13.94,15.31,53.87,0,110.5,13.3,14.74,177.7
"2010-06-15 00:21:30",202103,2.709,213,2.645,0.099,14.12,105.7283,13.94,15.31,53.96,0,110.5,13.3,14.74,175.0
"2010-06-15 00:22:00",202104,3.092,216.8,3.882,0.399,14.3,105.7283,13.94,15.32,54.04,0,110.5,13.3,14.74,178.8
"2010-06-15 00:22:30",202105,2.72,203.1,9.49,0.477,14.34,105.7283,13.94,15.33,54.27,0,110.5,13.3,14.74,165.1
"2010-06-15 00:23:00",202106,2.403,201.1,7.537,0.297,14.28,105.7283,13.94,15.35,54.64,0,110.5,13.3,14.74,163.1
"2010-06-15 00:23:30",202107,3.056,218,7.107,0.511,14.23,105.7283,13.94,15.36,54.87,0,110.5,13.3,14.74,180.0
"2010-06-15 00:24:00",202108,3.886,223.8,2.416,0.242,14.37,105.7286,13.94,15.37,55.56,0,110.5,13.3,14.74,185.8
"2010-06-15 00:24:30",202109,3.148,220.8,7.432,0.423,14.43,105.7289,13.94,15.38,55.47,0,110.5,13.3,14.74,182.8
"2010-06-15 00:25:00",202110,2.613,213.1,4.054,0.36,14.46,105.7336,13.95,15.38,55.83,0,110.5,13.3,14.75,175.1
"2010-06-15 00:25:30",202111,2.415,215.9,7.141,0.206,14.43,105.7426,13.97,15.4,57.05,0,110.5,13.3,14.77,177.9
"2010-06-15 00:26:00",202112,2.323,220.5,8.69,0.421,14.35,105.7511,14,15.4,55.86,0,110.5,13.3,14.80,182.5
"2010-06-15 00:26:30",202113,2.212,234.9,5.834,0.341,14.31,105.7494,13.99,15.41,56.03,0,110.5,13.3,14.79,196.9
"2010-06-15 00:27:00",202114,2.584,230.4,5.898,0.227,14.25,105.7542,14,15.41,54.95,0,110.5,13.3,14.80,192.4
"2010-06-15 00:27:30",202115,2.581,228.5,4.212,0.184,14.23,105.7607,14.02,15.42,54.11,0,110.5,13.3,14.82,190.5
"2010-06-15 00:28:00",202116,2.407,226.2,1.704,0.148,14.3,105.7621,14.02,15.42,52.99,0,110.5,13.3,14.82,188.2
"2010-06-15 00:28:30",202117,2.334,224.1,2.518,0.096,14.31,105.7629,14.03,15.43,51.97,0,110.5,13.3,14.83,186.1
"2010-06-15 00:29:00",202118,1.897,226.7,2.456,0.146,14.23,105.77,14.04,15.45,51.87,0,110.5,13.3,14.84,188.7
"2010-06-15 00:29:30",202119,1.792,226.2,1.75,0.107,14.17,105.7764,14.06,15.47,52.13,0,110.5,13.29,14.86,188.2
"2010-06-15 00:30:00",202120,1.418,218.3,6.585,0.189,14.25,105.7821,14.07,15.49,52.03,0,110.5,13.29,14.88,180.3
"2010-06-15 00:30:30",202121,1.63,218.1,3.531,0.201,14.16,105.7905,14.1,15.5,52.31,0,110.5,13.29,14.90,180.1
"2010-06-15 00:31:00",202122,1.789,210.8,7.31,0.162,14.2,105.7869,14.09,15.51,52.23,0,110.5,13.29,14.89,172.8
"2010-06-15 00:31:30",202123,2.117,212.1,4.095,0.343,14.25,105.7852,14.08,15.44,52.73,0,110.5,13.29,14.88,174.1
"2010-06-15 00:32:00",202124,2.201,213.9,7.807,0.383,14.29,105.7819,14.07,15.45,53.44,0,110.5,13.3,14.88,175.9
"2010-06-15 00:32:30",202125,1.53,221.8,9.75,0.342,14.26,105.7783,14.06,15.45,53.54,0,110.5,13.29,14.87,183.8
"2010-06-15 00:33:00",202126,1.793,235.9,8.79,0.54,14.25,105.7715,14.05,15.48,53.62,0,110.5,13.29,14.85,197.9
"2010-06-15 00:33:30",202127,1.922,245.4,5.05,0.288,14.26,105.7688,14.04,15.47,54.11,0,110.5,13.29,14.84,207.4
"2010-06-15 00:34:00",202128,1.395,258.9,6.66,0.22,14.31,105.7673,14.04,15.48,54.18,0,110.5,13.28,14.84,220.9
"2010-06-15 00:34:30",202129,0.969,264.9,5.459,0.165,14.34,105.7646,14.03,15.48,54.36,0,110.5,13.28,14.83,226.9
"2010-06-15 00:35:00",202130,1.155,245,16.35,0.252,14.21,105.7601,14.02,15.5,54.48,0,110.5,13.28,14.82,207.0
"2010-06-15 00:35:30",202131,0.848,228.2,13.98,0.197,14.13,105.7601,14.02,15.48,53.41,0,110.5,13.28,14.82,190.2
"2010-06-15 00:36:00",202132,0.559,236,15.16,0.351,14.13,105.7658,14.03,15.51,53.55,0,110.5,13.28,14.83,198.0
"2010-06-15 00:36:30",202133,0.551,205.1,15.18,0.193,14.16,105.7776,14.06,15.53,53.77,0,110.5,13.28,14.86,167.1
"2010-06-15 00:37:00",202134,0.495,200.6,13.07,0.14,14.1,105.7835,14.08,15.52,54.34,0,110.5,13.28,14.88,162.6
"2010-06-15 00:37:30",202135,0.365,134.9,25.54,0.266,14.06,105.7886,14.09,15.52,54.36,0,110.5,13.28,14.89,96.9
"2010-06-15 00:38:00",202136,0.167,168.2,38.09,0.248,14.05,105.7869,14.09,15.52,54.46,0,110.5,13.28,14.89,130.2
"2010-06-15 00:38:30",202137,0.431,132.9,15.65,0.218,13.94,105.7846,14.08,15.53,54.4,0,110.5,13.28,14.88,94.9
"2010-06-15 00:39:00",202138,0.593,178.6,22.11,0.214,13.93,105.7849,14.08,15.53,54.44,0,110.5,13.28,14.88,140.6
"2010-06-15 00:39:30",202139,0.695,163.8,14.95,0.153,13.92,105.7936,14.1,15.53,54.39,0,110.5,13.28,14.91,125.8
"2010-06-15 00:40:00",202140,0.645,158,17.21,0.199,13.86,105.7939,14.1,15.54,54.54,0,110.5,13.28,14.91,120.0
"2010-06-15 00:40:30",202141,1.019,152.7,16.29,0.204,13.84,105.7947,14.11,15.55,55.02,0,110.5,13.28,14.91,114.7
"2010-06-15 00:41:00",202142,1.219,161,3.657,0.302,13.94,105.801,14.12,15.55,54.82,0,110.5,13.28,14.92,123.0
"2010-06-15 00:41:30",202143,0.555,147.5,17.18,0.127,14.02,105.809,14.14,15.54,54.85,0,110.5,13.28,14.95,109.5
"2010-06-15 00:42:00",202144,0.326,94.9,24.72,0.157,14.04,105.8126,14.15,15.56,55.04,0,110.5,13.28,14.95,56.9
"2010-06-15 00:42:30",202145,0.532,74.6,12.78,0.189,14.06,105.8172,14.16,15.56,54.87,0,110.5,13.28,14.97,36.6
"2010-06-15 00:43:00",202146,0.719,41.53,9.72,0.206,14,105.8204,14.17,15.57,54.51,0,110.5,13.28,14.97,3.5
"2010-06-15 00:43:30",202147,0.724,62.7,10.45,0.216,14.14,105.8218,14.18,15.59,54.63,0,110.5,13.28,14.98,24.7
"2010-06-15 00:44:00",202148,0.593,59.1,8.7,0.231,14.1,105.8139,14.16,15.59,54.53,0,110.5,13.28,14.96,21.1
"2010-06-15 00:44:30",202149,0.605,75.79,8.63,0.202,14.15,105.8072,14.14,15.59,54.33,0,110.5,13.28,14.94,37.8
"2010-06-15 00:45:00",202150,0.612,66.89,13.42,0.245,14.11,105.801,14.12,15.59,54.65,0,110.5,13.28,14.92,28.9
"2010-06-15 00:45:30",202151,0.809,53.93,3.735,0.181,14.06,105.7966,14.11,15.59,54.45,0,110.5,13.28,14.91,15.9
"2010-06-15 00:46:00",202152,0.544,60.61,7.316,0.155,14.19,105.8035,14.13,15.59,55.23,0,110.5,13.28,14.93,22.6
"2010-06-15 00:46:30",202153,0.538,63.39,13.89,0.202,14.25,105.8079,14.14,15.6,55.67,0,110.5,13.28,14.94,25.4
"2010-06-15 00:47:00",202154,0.526,47.75,4.983,0.151,14.24,105.8246,14.18,15.61,55.63,0,110.5,13.29,14.99,9.8
"2010-06-15 00:47:30",202155,0.673,53.62,6.681,0.156,14.18,105.8357,14.21,15.63,55.52,0,110.5,13.28,15.01,15.6
"2010-06-15 00:48:00",202156,0.455,43.86,15.13,0.198,14.35,105.8438,14.23,15.64,55.39,0,110.5,13.28,15.03,5.9
"2010-06-15 00:48:30",202157,0.182,3.625,30.4,0.219,14.75,105.8612,14.28,15.65,55.29,0,110.5,13.28,15.08,325.6
"2010-06-15 00:49:00",202158,0.06,358.1,28.65,0.157,14.86,105.8975,14.37,15.71,55.08,0,110.5,13.28,15.17,320.1
"2010-06-15 00:49:30",202159,0.131,347.3,27.4,0.226,14.56,105.9282,14.45,15.75,54.57,0,110.5,13.28,15.25,309.3
"2010-06-15 00:50:00",202160,0.038,335.4,55.22,0.151,14.44,105.9333,14.46,15.79,54.58,0,110.5,13.28,15.26,297.4
"2010-06-15 00:50:30",202161,0.362,78.42,67,0.196,14.26,105.9277,14.45,15.81,54.68,0,110.5,13.28,15.25,40.4
"2010-06-15 00:51:00",202162,0.558,121.3,19.69,0.244,14.25,105.9077,14.4,15.81,54.66,0,110.5,13.28,15.20,83.3
"2010-06-15 00:51:30",202163,0.354,101.2,23.51,0.176,14.35,105.8924,14.36,15.8,54.82,0,110.5,13.28,15.16,63.2
"2010-06-15 00:52:00",202164,0.146,76.59,40.66,0.15,14.53,105.88,14.33,15.78,54.5,0,110.5,13.28,15.13,38.6
"2010-06-15 00:52:30",202165,0.405,352.3,22.75,0.354,14.78,105.8998,14.38,15.78,53.58,0,110.5,13.28,15.18,314.3
"2010-06-15 00:53:00",202166,0.092,14.76,23.35,0.162,14.86,105.9251,14.44,15.78,53.76,0,110.5,13.29,15.24,336.8
"2010-06-15 00:53:30",202167,0.173,14.1,25.26,0.201,14.7,105.9493,14.5,15.83,53.93,0,110.5,13.29,15.31,336.1
"2010-06-15 00:54:00",202168,0.088,23.89,24.53,0.123,14.58,105.9637,14.54,15.87,53.79,0,110.6,13.29,15.34,345.9
"2010-06-15 00:54:30",202169,0.263,337.8,16.18,0.232,14.54,105.9817,14.59,15.92,52.7,0,110.6,13.29,15.39,299.8
"2010-06-15 00:55:00",202170,0.343,343.1,29.77,0.346,14.54,105.9784,14.58,15.95,53.46,0,110.6,13.29,15.38,305.1
"2010-06-15 00:55:30",202171,0.098,5.21,26.65,0.134,14.69,105.9595,14.53,15.95,53.64,0,110.6,13.29,15.33,327.2
"2010-06-15 00:56:00",202172,0.196,15.82,19.7,0.175,14.7,105.9706,14.56,15.97,53.74,0,110.6,13.29,15.36,337.8
"2010-06-15 00:56:30",202173,0.572,337,15.21,0.188,14.56,105.979,14.58,16,53.94,0,110.6,13.29,15.38,299.0
"2010-06-15 00:57:00",202174,0.491,342.3,21.23,0.284,14.62,105.9885,14.6,16,53.8,0,110.6,13.29,15.41,304.3
"2010-06-15 00:57:30",202175,0.736,323.1,10.89,0.227,14.43,105.9806,14.58,16.02,53.75,0,110.6,13.29,15.39,285.1
"2010-06-15 00:58:00",202176,0.685,354.4,26.92,0.422,14.49,105.9696,14.55,16,53.62,0,110.6,13.29,15.36,316.4
"2010-06-15 00:58:30",202177,0.844,315.4,11.25,0.125,14.29,105.9634,14.54,16,53.19,0,110.6,13.29,15.34,277.4
"2010-06-15 00:59:00",202178,0.672,306.9,15.88,0.158,14.34,105.9327,14.46,15.97,53.21,0,110.6,13.29,15.26,268.9
"2010-06-15 00:59:30",202179,0.493,251.1,15.92,0.115,14.54,105.9051,14.39,15.95,53.45,0,110.6,13.28,15.19,213.1
"2010-06-15 01:00:00",202180,0.357,208.9,10.26,0.192,14.81,105.8801,14.33,15.89,53.74,0,110.6,13.28,15.13,170.9
"2010-06-15 01:00:30",202181,0.132,226.8,13.91,0.125,14.96,105.8677,14.29,15.86,53.83,0,110.6,13.28,15.10,188.8
"2010-06-15 01:01:00",202182,0.063,252.1,56.7,0.202,15.07,105.8513,14.25,15.81,53.84,0,110.6,13.28,15.05,214.1
"2010-06-15 01:01:30",202183,0.077,354.9,42.52,0.149,15.4,105.864,14.28,15.78,53.53,0,110.6,13.28,15.09,316.9
"2010-06-15 01:02:00",202184,0.123,313.5,46.01,0.195,15.37,105.8716,14.3,15.77,53.41,0,110.6,13.28,15.11,275.5
"2010-06-15 01:02:30",202185,0.174,286.1,37.94,0.128,15.34,105.857,14.27,15.77,53.46,0,110.6,13.28,15.07,248.1
"2010-06-15 01:03:00",202186,0.552,34.59,9.02,0.152,15.36,105.8542,14.26,15.74,53.61,0,110.6,13.28,15.06,356.6
"2010-06-15 01:03:30",202187,-0.01,21.55,25.56,0.096,15.88,105.8595,14.27,15.72,53.71,0,110.6,13.29,15.07,343.5
"2010-06-15 01:04:00",202188,0.128,342.2,24.96,0.186,15.76,105.8775,14.32,15.72,53.72,0,110.6,13.29,15.12,304.2
"2010-06-15 01:04:30",202189,0.401,297,13.91,0.094,15.43,105.8767,14.32,15.75,53.44,0,110.6,13.28,15.12,259.0
"2010-06-15 01:05:00",202190,0.315,303.6,12.99,0.072,15.47,105.859,14.27,15.75,53.82,0,110.6,13.28,15.07,265.6
"2010-06-15 01:05:30",202191,0.133,330.7,43.94,0.192,15.7,105.8452,14.24,15.75,53.6,0,110.6,13.28,15.04,292.7
"2010-06-15 01:06:00",202192,0.583,323.6,4.831,0.063,15.2,105.844,14.23,15.71,52.8,0,110.6,13.28,15.04,285.6
"2010-06-15 01:06:30",202193,0.493,319.2,7.564,0.061,15.24,105.8325,14.2,15.69,53.03,0,110.6,13.28,15.01,281.2
"2010-06-15 01:07:00",202194,0.408,320,4.542,0.078,15.31,105.8128,14.15,15.66,52.78,0,110.6,13.29,14.95,282.0
"2010-06-15 01:07:30",202195,0.349,325.7,6.087,0.054,15.33,105.8094,14.14,15.64,52.67,0,110.5,13.29,14.95,287.7
"2010-06-15 01:08:00",202196,0.347,325.1,13.26,0.084,15.46,105.8032,14.13,15.63,52.73,0,110.5,13.29,14.93,287.1
"2010-06-15 01:08:30",202197,0.404,328.8,10.3,0.066,15.43,105.8007,14.12,15.61,52.82,0,110.5,13.29,14.92,290.8
"2010-06-15 01:09:00",202198,0.548,333.1,5.945,0.116,15.63,105.7925,14.1,15.59,52.97,0,110.6,13.29,14.90,295.1
"2010-06-15 01:09:30",202199,0.452,338.2,6.761,0.052,15.51,105.7832,14.08,15.57,53.2,0,110.5,13.29,14.88,300.2
"2010-06-15 01:10:00",202200,0.149,355.7,17.98,0.144,15.84,105.7919,14.1,15.56,53.32,0,110.5,13.3,14.90,317.7
"2010-06-15 01:10:30",202201,0.033,21.26,17.78,0.113,15.91,105.8173,14.16,15.57,53.2,0,110.5,13.3,14.97,343.3
"2010-06-15 01:11:00",202202,0.049,2.672,20.2,0.132,15.99,105.8491,14.25,15.61,52.99,0,110.5,13.3,15.05,324.7
"2010-06-15 01:11:30",202203,0.319,17.2,11.98,0.193,15.82,105.8755,14.31,15.65,52.86,0,110.5,13.3,15.12,339.2
"2010-06-15 01:12:00",202204,0.408,20.56,10.19,0.097,15.61,105.8839,14.34,15.67,52.71,0,110.5,13.3,15.14,342.6
"2010-06-15 01:12:30",202205,0.483,24.23,5.907,0.129,15.56,105.8885,14.35,15.69,52.67,0,110.5,13.31,15.15,346.2
"2010-06-15 01:13:00",202206,0.753,29.9,14.58,0.164,15.68,105.8953,14.36,15.71,52.96,0,110.5,13.31,15.17,351.9
"2010-06-15 01:13:30",202207,0.696,50.91,12.43,0.108,15.6,105.8792,14.32,15.71,53.31,0,110.5,13.31,15.13,12.9
"2010-06-15 01:14:00",202208,0.448,56.38,10.37,0.199,15.67,105.8536,14.26,15.69,53.37,0,110.5,13.31,15.06,18.4
"2010-06-15 01:14:30",202209,0.711,38.32,14.05,0.25,15.74,105.8415,14.23,15.67,53.12,0,110.5,13.31,15.03,0.3
"2010-06-15 01:15:00",202210,0.692,30.29,7.078,0.222,15.78,105.8381,14.22,15.65,53.19,0,110.5,13.31,15.02,352.3
"2010-06-15 01:15:30",202211,0.903,44.51,2.06,0.054,15.71,105.8291,14.2,15.64,53.47,0,110.5,13.31,15.00,6.5
"2010-06-15 01:16:00",202212,0.557,33.25,5.404,0.173,15.71,105.8163,14.16,15.64,53.42,0,110.5,13.31,14.96,355.2
"2010-06-15 01:16:30",202213,0.341,23.34,6.583,0.079,15.63,105.8211,14.17,15.62,53.27,0,110.5,13.31,14.98,345.3
"2010-06-15 01:17:00",202214,0.193,15.36,21.7,0.183,15.86,105.8419,14.23,15.64,53.23,0,110.5,13.31,15.03,337.4
"2010-06-15 01:17:30",202215,0.055,11.77,21.3,0.154,16.04,105.8619,14.28,15.66,53.2,0,110.5,13.31,15.08,333.8
"2010-06-15 01:18:00",202216,0.063,18.08,21.63,0.127,15.99,105.8815,14.33,15.67,53.1,0,110.5,13.32,15.13,340.1
"2010-06-15 01:18:30",202217,0.868,26.03,4.323,0.312,15.65,105.8842,14.34,15.69,54.16,0,110.5,13.32,15.14,348.0
"2010-06-15 01:19:00",202218,0.487,7.812,21.64,0.424,15.8,105.8798,14.32,15.68,54.34,0,110.5,13.32,15.13,329.8
"2010-06-15 01:19:30",202219,0.458,22.27,7.735,0.369,15.79,105.8759,14.31,15.69,54.52,0,110.5,13.32,15.12,344.3
"2010-06-15 01:20:00",202220,0.944,29.1,7.148,0.172,15.64,105.8646,14.29,15.68,54.59,0,110.5,13.32,15.09,351.1
"2010-06-15 01:20:30",202221,0.927,17.51,12.3,0.439,15.67,105.8485,14.24,15.66,55.05,0,110.5,13.32,15.05,339.5
"2010-06-15 01:21:00",202222,1.447,27.39,8.65,0.235,15.6,105.8342,14.21,15.63,55.62,0,110.5,13.32,15.01,349.4
"2010-06-15 01:21:30",202223,1.691,40.2,8.38,0.196,15.61,105.8142,14.16,15.62,55.59,0,110.5,13.32,14.96,2.2
"2010-06-15 01:22:00",202224,1.853,39.64,5.033,0.358,15.55,105.788,14.09,15.58,56.45,0,110.5,13.32,14.89,1.6
"2010-06-15 01:22:30",202225,2.012,39.31,5.92,0.267,15.62,105.7545,14,15.55,56.98,0,110.5,13.32,14.80,1.3
"2010-06-15 01:23:00",202226,1.975,38.35,5.137,0.234,15.65,105.7422,13.97,15.48,57.07,0,110.4,13.32,14.77,0.3
"2010-06-15 01:23:30",202227,1.753,31.21,3.898,0.271,15.68,105.7363,13.96,15.45,57.49,0,110.4,13.32,14.76,353.2
"2010-06-15 01:24:00",202228,2.39,39.02,4.148,0.284,15.7,105.7377,13.96,15.41,57.51,0,110.4,13.33,14.76,1.0
"2010-06-15 01:24:30",202229,2.585,43.03,2.182,0.236,15.7,105.7158,13.9,15.38,57.21,0,110.4,13.33,14.71,5.0
"2010-06-15 01:25:00",202230,2.868,47.06,2.823,0.101,15.78,105.7152,13.9,15.37,56.97,0,110.4,13.33,14.70,9.1
"2010-06-15 01:25:30",202231,2.622,42.64,3.953,0.104,15.7,105.7124,13.9,15.35,57.1,0,110.4,13.34,14.70,4.6
"2010-06-15 01:26:00",202232,2.68,36.59,1.42,0.152,15.78,105.7062,13.88,15.33,57.05,0,110.4,13.34,14.68,358.6
"2010-06-15 01:26:30",202233,2.295,32.18,3.307,0.327,15.77,105.7023,13.87,15.32,57.56,0,110.4,13.34,14.67,354.2
"2010-06-15 01:27:00",202234,2.432,32.99,3.744,0.358,15.78,105.6847,13.83,15.3,57.41,0,110.4,13.35,14.63,355.0
"2010-06-15 01:27:30",202235,2.341,31.69,2.714,0.286,15.76,105.6966,13.86,15.29,58.01,0,110.4,13.36,14.66,353.7
"2010-06-15 01:28:00",202236,3.869,37.39,6.275,1.146,17.3,105.7004,13.87,15.38,58.47,0,110.4,13.33,14.67,359.4
"2010-06-15 01:28:30",202237,4.005,37.46,7.164,1.361,17.44,105.6845,13.82,15.37,58.63,0,110.4,13.33,14.63,359.5
"2010-06-15 01:29:00",202238,4.591,41.41,6.929,1.314,17.08,105.6819,13.82,15.39,58.55,0,110.4,13.34,14.62,3.4
"2010-06-15 01:29:30",202239,5.941,49.85,5.413,1.065,18.59,105.6701,13.79,15.47,58.53,0,110.4,13.34,14.59,11.8
"2010-06-15 01:30:00",202240,4.796,47.74,6.242,1.207,15.84,105.6563,13.75,15.34,58.29,0,110.4,13.34,14.55,9.7
"2010-06-15 01:30:30",202241,3.845,45.45,1.749,0.132,13.98,105.6495,13.74,15.18,58.1,0,110.4,13.37,14.54,7.5
"2010-06-15 01:31:00",202242,4.007,44.55,1.806,0.173,13.91,105.6495,13.74,15.16,58.1,0,110.3,13.37,14.54,6.5
"2010-06-15 01:31:30",202243,4.143,44.32,2.776,0.135,14.06,105.6493,13.73,15.14,58.13,0,110.3,13.38,14.53,6.3
"2010-06-15 01:32:00",202244,4.196,42.87,1.282,0.178,14.37,105.6489,13.73,15.14,58.11,0,110.3,13.38,14.53,4.9
"2010-06-15 01:32:30",202245,4.758,42.99,4.237,0.786,14.83,105.6461,13.73,15.16,58.14,0,110.3,13.35,14.53,5.0
"2010-06-15 01:33:00",202246,5.196,48.98,6.065,1.213,16.68,105.644,13.72,15.26,58.32,0,110.3,13.35,14.52,11.0
"2010-06-15 01:33:30",202247,5.03,45.42,5.033,0.934,15.89,105.6398,13.71,15.19,58.31,0,110.3,13.35,14.51,7.4
"2010-06-15 01:34:00",202248,4.761,42.42,1.353,0.125,14.74,105.6493,13.73,15.13,58.2,0,110.3,13.39,14.53,4.4
"2010-06-15 01:34:30",202249,4.615,42.82,1.888,0.206,14.77,105.6449,13.72,15.11,58.17,0,110.3,13.39,14.52,4.8
"2010-06-15 01:35:00",202250,4.982,45.55,5.766,1.046,15.98,105.6348,13.7,15.15,58.24,0,110.3,13.36,14.50,7.5
"2010-06-15 01:35:30",202251,5.736,49.99,6.95,1.213,17.13,105.6345,13.7,15.24,58.43,0,110.3,13.36,14.50,12.0
"2010-06-15 01:36:00",202252,4.921,42.78,2.585,0.043,15.21,105.6345,13.7,15.12,58.25,0,110.3,13.39,14.50,4.8
"2010-06-15 01:36:30",202253,4.84,41.23,1,0.116,14.94,105.6345,13.7,15.08,58.15,0,110.3,13.39,14.50,3.2
"2010-06-15 01:37:00",202254,5.051,44.7,4.67,0.991,15.85,105.6345,13.7,15.15,58.35,0,110.3,13.37,14.50,6.7
"2010-06-15 01:37:30",202255,6.313,48.34,6.29,1.404,17.76,105.6317,13.69,15.25,58.21,0,110.3,13.37,14.49,10.3
"2010-06-15 01:38:00",202256,6.253,48.33,5.567,1.227,16.58,105.6249,13.67,15.27,58.12,0,110.3,13.37,14.47,10.3
"2010-06-15 01:38:30",202257,5.532,45.66,3.727,0.884,14.94,105.6187,13.66,15.08,57.93,0,110.3,13.37,14.46,7.7
"2010-06-15 01:39:00",202258,5.54,43.27,1.449,0.12,14.11,105.6168,13.65,15.06,57.86,0,110.3,13.39,14.45,5.3
"2010-06-15 01:39:30",202259,5.222,41.85,0.924,0.117,14.24,105.6122,13.64,15.08,57.81,0,110.3,13.39,14.44,3.8
"2010-06-15 01:40:00",202260,5.088,40.63,2.237,0.162,14.43,105.6063,13.62,15.07,57.82,0,110.3,13.4,14.42,2.6
"2010-06-15 01:40:30",202261,5.461,39.56,2.342,0.242,14.69,105.5754,13.55,15.05,57.88,0,110.3,13.4,14.34,1.6
"2010-06-15 01:41:00",202262,6.765,48.01,6.115,1.225,16.62,105.5616,13.51,15.18,58.04,0,110.3,13.37,14.31,10.0
"2010-06-15 01:41:30",202263,7.647,52.25,4.851,1.023,18.84,105.5693,13.53,15.3,58.21,0,110.3,13.37,14.33,14.2
"2010-06-15 01:42:00",202264,6.819,47.81,6.722,1.214,17.03,105.5935,13.59,15.18,58.14,0,110.3,13.37,14.39,9.8
"2010-06-15 01:42:30",202265,5.577,44.02,0.549,0.053,14.46,105.6081,13.63,15.01,57.87,0,110.3,13.4,14.43,6.0
"2010-06-15 01:43:00",202266,5.558,44.74,0.8,0.099,14.5,105.6062,13.62,15.02,57.65,0,110.3,13.4,14.42,6.7
"2010-06-15 01:43:30",202267,5.545,44.08,0.952,0.098,14.63,105.6048,13.62,15.02,57.6,0,110.3,13.41,14.42,6.1
"2010-06-15 01:44:00",202268,6.692,47.15,5.509,1.196,16.8,105.604,13.62,15.11,57.98,0,110.3,13.38,14.42,9.2
"2010-06-15 01:44:30",202269,6.729,46.12,7.85,1.273,17.48,105.5947,13.59,15.25,58.29,0,110.3,13.39,14.39,8.1
"2010-06-15 01:45:00",202270,6.812,52.95,6.349,1.222,16.92,105.5831,13.57,15.15,57.97,0,110.3,13.38,14.36,15.0
"2010-06-15 01:45:30",202271,5.117,46.08,1.588,0.169,14.27,105.5591,13.5,14.99,57.83,0,110.3,13.41,14.30,8.1
"2010-06-15 01:46:00",202272,5.298,45.69,0.862,0.161,14.07,105.5825,13.56,14.99,57.78,0,110.3,13.41,14.36,7.7
"2010-06-15 01:46:30",202273,5.314,43.77,1.27,0.109,14.14,105.5653,13.52,14.98,58.12,0,110.3,13.42,14.32,5.8
"2010-06-15 01:47:00",202274,5.189,39.34,1.614,0.193,14.48,105.5467,13.47,15.01,58.28,0,110.3,13.42,14.27,1.3
"2010-06-15 01:47:30",202275,6.428,46.87,6.344,1.249,16.57,105.571,13.53,15.09,58.29,0,110.3,13.39,14.33,8.9
"2010-06-15 01:48:00",202276,6.672,49.75,6.559,1.287,17,105.5588,13.5,15.17,58.33,0,110.3,13.39,14.30,11.8